Location: Garbet
(42.8837°N, 1.2115°E)
Time: 12:05:18
(UTC+00:00)

SPOT 1/Viking Rocket - Visible Passes

Search period start: 15 March 2026 00:00
Search period end: 25 March 2026 00:00
Orbit: 773 x 788 km, 98.2° (Epoch: 14 March)

Date Brightness Start Highest point End Pass type
(mag) Time Alt. Az. Time Alt. Az. Time Alt. Az.
15 Mar 6.9 05:30:49 10° NE 05:33:43 15° E 05:36:35 10° ESE visible
15 Mar 4.8 18:26:03 10° S 18:30:59 46° W 18:35:58 10° NNW visible
16 Mar 7.0 19:37:22 10° WSW 19:38:42 11° W 19:40:02 10° WNW visible
17 Mar 6.2 19:02:04 10° SW 19:06:03 22° W 19:10:05 10° NW visible
18 Mar 6.9 05:33:13 10° NE 05:36:19 16° E 05:39:25 10° SE visible
18 Mar 5.0 18:28:41 10° S 18:33:34 43° W 18:38:32 10° NNW visible
19 Mar 7.1 19:40:55 10° W 19:41:20 10° W 19:41:43 10° W visible
20 Mar 6.4 19:04:48 10° SW 19:08:39 21° W 19:12:33 10° NW visible
21 Mar 5.1 18:31:18 10° SSW 18:36:09 41° W 18:41:03 10° NNW visible
23 Mar 6.4 19:07:31 10° SW 19:11:14 20° W 19:15:01 10° NW visible
24 Mar 5.3 18:33:56 10° SSW 18:38:44 38° W 18:43:35 10° NNW visible
